Location: T�bingen+AIT
(48.5342°N, 9.0700°E)
Time: 00:11:23
(UTC+02:00)

Daily predictions for brighter satellites

Satellite Brightness Start Highest point End
(mag) Time Altitude Azimuth Time Altitude Azimuth Time Altitude Azimuth
NOSS 2-2 (D) 3.7 00:02:53 30° S 00:04:24 45° ESE 00:08:40 10° NE
Meteor 1-29 4.5 00:03:03 10° N 00:06:10 33° WNW 00:08:57 12° SW
Cosmos 1709 Rocket 4.3 00:00:45 10° NNW 00:06:55 63° W 00:11:16 20° S
CZ-2C R/B 2.7 00:03:02 10° NNE 00:08:33 83° WNW 00:12:32 18° SSW
COBE Rocket 4.0 00:04:11 10° NNE 00:09:15 75° ESE 00:12:22 24° S
Cosmos 1703 3.3 00:09:52 33° SSE 00:11:25 64° E 00:15:18 10° NNE
SAR-Lupe-1 4.0 00:14:47 37° SSE 00:16:06 86° WSW 00:19:43 10° NNW
ATLAS 3B R/B 3.9 00:13:34 10° WNW 00:18:59 27° WSW 00:22:42 17° SSW
Cosmos 2074 Rocket 4.0 00:13:46 10° N 00:20:04 74° E 00:23:50 26° SSE
Terra 3.5 00:18:12 12° SW 00:21:31 24° W 00:25:24 10° NW
Cosmos 1461 3.4 00:19:19 10° SW 00:24:00 74° NW 00:28:49 10° NE
RESURS DK-1 2.6 00:22:48 34° SSE 00:24:12 51° ESE 00:28:14 10° NE
SL-19 R/B 4.3 00:23:50 10° NNE 00:29:20 61° ESE 00:32:04 28° S
NOSS 2-2 (C) 3.3 00:28:15 26° SSW 00:30:25 77° SE 00:34:59 10° NE
Cosmos 1626 3.5 00:30:23 17° SW 00:32:45 33° WNW 00:36:11 10° N
Meteor 1-11 4.3 00:30:40 23° SSW 00:34:27 80° WNW 00:40:17 10° N
ALOS 2 2.7 00:32:37 32° SSE 00:34:36 68° ENE 00:38:58 10° N
Cosmos 1455 2.9 00:40:39 10° NNW 00:44:15 43° W 00:45:33 30° SW
Cosmos 2327 Rocket 4.5 00:38:15 10° N 00:44:31 90° W 00:48:07 28° S
Cosmos 1151 Rocket 2.9 00:41:02 10° N 00:45:21 80° E 00:47:00 37° SSE
Cosmos 1766 Rocket 4.0 00:43:21 26° SSW 00:45:43 59° WNW 00:50:11 10° N
Meteor 2-21 4.4 00:40:11 10° N 00:46:16 85° E 00:49:37 28° SSE
Cosmos 1408 Rocket 3.7 00:44:10 30° SSW 00:46:20 71° W 00:50:49 10° N
Cosmos 1610 Rocket 4.5 00:41:09 10° N 00:47:27 80° E 00:50:56 28° SSE
ATLAS 2AS CENTAUR R/B 4.4 00:42:04 10° W 00:49:37 41° NNW 00:57:13 10° NE
Cosmos 1515 Rocket 3.5 00:47:13 10° N 00:51:39 89° WSW 00:53:25 37° S
Cosmos 2278 Rocket 3.4 00:46:38 10° WSW 00:51:58 41° NW 00:57:21 10° NNE
CZ-4C R/B 3.2 00:54:06 41° SSE 00:55:27 90° SW 00:59:17 10° NNW
SL-27 R/B 3.9 00:53:20 10° NW 00:56:27 27° WSW 00:57:13 25° SW
Cosmos 2184 Rocket 4.2 00:50:42 10° NNW 00:56:58 65° W 01:00:32 27° SSW
Mayak -1.3 00:54:01 10° NNE 00:58:13 88° ESE 00:59:48 37° SSW
H-2A R/B 1.9 00:58:45 38° SSE 01:00:15 79° ENE 01:04:24 10° NNW
Cosmos 2154 Rocket 4.0 00:57:32 10° N 01:03:57 87° E 01:07:30 29° S
DELTA 2 DEB (DPAF) 4.3 01:02:19 35° S 01:04:02 64° WSW 01:08:29 10° NNW
BREEZE-M DEB (TANK) 1.8 01:02:50 10° W 01:05:53 68° N 01:06:54 27° ENE
Cosmos 1892 4.5 01:06:48 18° ESE 01:07:49 20° E 01:10:37 10° NE
Lacrosse 5 3.7 01:04:07 10° WNW 01:08:42 33° N 01:13:17 10° NE
Meteor 2-10 Rocket 3.5 01:05:49 10° NNW 01:10:56 74° W 01:13:21 32° S
CZ-4 R/B 4.4 01:06:26 10° N 01:11:07 52° WNW 01:13:54 23° SW
SL-8 R/B 3.6 01:07:54 10° W 01:12:46 90° N 01:17:37 10° E
Cosmos 2151 3.3 01:11:40 32° SW 01:13:28 59° WNW 01:17:41 10° N
CZ-4B R/B 3.5 01:10:01 10° NNE 01:15:21 83° ESE 01:17:55 31° S
Cosmos 2341 Rocket 4.1 01:10:54 10° N 01:17:16 76° E 01:20:57 27° SSE
deb Chang Zheng 4 3.9 01:14:28 10° NNE 01:18:48 53° E 01:20:19 35° SSE
Cosmos 2228 Rocket 3.6 01:17:16 10° NNW 01:21:35 47° W 01:23:12 32° SW
Cosmos 2369 Rocket 2.9 01:20:09 28° SSE 01:22:23 39° ESE 01:27:36 10° NE
Cosmos 304 Rocket 4.3 01:19:33 10° NNW 01:24:17 54° ENE 01:27:08 22° SE
Meteor 2-16 Rocket 4.5 01:18:40 10° NNW 01:24:49 76° W 01:28:05 29° S
Cosmos 2058 4.1 01:23:19 22° SW 01:25:20 35° WNW 01:29:10 10° N
Cosmos 962 Rocket 4.4 01:19:38 10° N 01:25:55 89° E 01:29:17 29° S
NOSS 3-4 (A) 4.5 01:19:57 10° WSW 01:25:56 46° NW 01:32:17 10° NE
ADEOS Rocket 3.1 01:20:11 10° N 01:26:00 71° WNW 01:30:00 24° SSW
NOSS 3-4 (C) 4.5 01:20:01 10° WSW 01:26:00 47° NW 01:32:23 10° NE
Cosmos 1295 Rocket 4.5 01:20:26 10° N 01:26:41 87° E 01:30:10 29° S
CENTAUR R/B 3.8 01:21:24 10° NW 01:28:39 39° WSW 01:32:49 25° SSW
Cosmos 2218 Rocket 4.5 01:22:50 10° N 01:28:52 53° ENE 01:32:53 21° SE
Cosmos 405 Rocket 4.0 01:26:59 10° NW 01:30:08 26° W 01:30:59 24° WSW
IKONOS-2 4.4 01:28:32 38° SSE 01:30:08 86° ENE 01:34:24 10° NNW
NOSS 8 (F) 4.3 01:29:44 45° WSW 01:30:35 74° NW 01:33:57 10° NE
SL-8 Rocket 4.2 01:24:27 10° N 01:30:42 65° ENE 01:34:34 24° SSE
Cosmos 2082 Rocket 3.9 01:31:43 10° NW 01:35:43 20° W 01:37:52 16° SW
ATLAS 5 CENTAUR R/B 3.0 01:31:46 10° WSW 01:36:10 41° NW 01:41:05 10° NNE
Cosmos 1140 Rocket 3.4 01:35:27 33° SSW 01:37:49 81° ESE 01:42:58 10° NNE
Cosmos 371 Rocket 3.7 01:33:17 10° NNW 01:37:56 47° WSW 01:39:39 33° SSW
USA 234 3.5 01:32:08 10° ENE 01:38:29 49° SE 01:41:53 27° SSW
Cosmos 1743 Rocket 4.5 01:37:08 25° SW 01:39:12 41° WNW 01:43:24 10° N
deb Kosmos-1763 4.5 01:35:28 10° NNW 01:39:12 60° ENE 01:40:42 33° SE
JB-3 4.3 01:36:15 10° N 01:40:09 73° WNW 01:41:24 40° SSW
Cosmos 614 Rocket 3.9 01:42:20 31° SSW 01:44:53 85° WNW 01:50:03 10° NNE
Cosmos 1818 4.4 01:40:53 10° NNW 01:46:15 52° NE 01:51:35 10° ESE
Cosmos 1954 Rocket 3.9 01:44:14 31° SSW 01:46:45 87° WNW 01:51:58 10° NNE
Cosmos 676 Rocket 4.0 01:45:03 29° SSW 01:47:46 76° WNW 01:52:58 10° NNE
Cosmos 1805 Rocket 3.5 01:46:17 38° S 01:47:56 77° E 01:52:21 10° NNE
Orbus 7S? 3.6 01:46:46 22° W 01:48:05 43° NNW 01:51:15 10° NE
CZ-4B R/B 3.7 01:49:31 12° ESE 01:51:22 18° ENE 01:53:34 10° NNE
Sich 1 3.3 01:51:02 34° SSE 01:52:43 60° E 01:57:04 10° NNE
Cosmos 407 Rocket 4.3 01:50:14 19° SW 01:53:39 44° WNW 01:58:39 10° NNE
Timation 2 Rocket 4.2 01:48:32 10° NW 01:55:08 63° WSW 01:59:04 26° S
COSMOS 2487 3.4 01:52:53 10° NW 01:56:05 32° WSW 01:56:24 32° WSW
COSMOS 2455 4.3 01:50:55 10° NNW 01:56:28 36° NE 02:02:00 10° ESE
In-Cosmos 22 Rocket 4.0 01:54:47 31° SSW 01:57:25 84° W 02:02:52 10° N
Cosmos 2366 rocket 4.0 01:51:52 10° N 01:58:03 78° E 02:01:51 25° SSE
Cosmos 2263 4.4 02:00:01 30° S 02:02:40 56° ESE 02:08:10 10° NE
Cosmos 1943 Rocket 2.3 02:03:39 30° S 02:06:20 64° ESE 02:11:53 10° NNE
Cosmos 1707 Rocket 3.6 02:04:18 10° NNW 02:08:42 68° W 02:10:24 35° SSW
Cosmos 1833 4.3 02:03:26 10° NNW 02:09:03 74° ENE 02:13:36 16° SE
CZ-2D R/B 4.3 02:06:31 10° NE 02:09:44 16° E 02:12:57 10° SE
SL-16 R/B 3.9 02:05:42 10° ESE 02:11:08 34° ENE 02:16:37 10° N
Cosmos 1606 3.7 02:10:36 10° N 02:14:14 41° ENE 02:16:22 21° SE
Cosmos 1408 3.5 02:13:04 28° SE 02:14:27 39° E 02:17:55 10° NNE
Cosmos 1633 Rocket 3.1 02:12:45 33° S 02:14:40 75° E 02:19:06 10° NNE
Cosmos 1825 3.3 02:13:50 24° SE 02:15:21 35° E 02:18:49 10° NNE
CZ-4C R/B 3.1 02:15:43 36° SSE 02:17:08 80° ENE 02:20:50 10° N
Cosmos 1570 Rocket 3.9 02:12:14 10° NNW 02:17:32 78° WSW 02:20:33 26° SSE
Landsat 5 3.7 02:18:18 24° SE 02:20:24 57° ENE 02:24:13 10° N
Cosmos 1689 Rocket 3.6 02:20:41 20° ESE 02:22:13 32° ENE 02:25:00 10° N
Cosmos 1470 Rocket 4.2 02:20:16 25° SSE 02:22:31 48° E 02:26:49 10° NNE
Meteor 1-26 Rocket 4.2 02:22:57 10° NNW 02:28:41 73° W 02:31:59 26° S
Cosmos 1850 Rocket 4.0 02:28:08 28° SSW 02:30:58 81° WNW 02:36:16 10° NNE
SL-08 R/B 4.5 02:26:29 10° NNW 02:32:34 70° W 02:36:21 24° S
Mayak 1.3 02:31:34 10° NW 02:33:10 12° WNW 02:34:46 10° W
Resurs 1-4 Rocket 3.7 02:31:51 10° NE 02:36:19 26° E 02:40:29 11° SSE
H-2A R/B 4.3 02:35:51 10° WSW 02:36:50 11° W 02:37:59 10° WNW
Lacrosse 4 Rocket 2.7 02:37:04 22° SSE 02:39:00 32° ESE 02:42:58 10° NE
Cosmos 1666 Rocket 3.9 02:37:15 28° SW 02:39:15 52° WNW 02:43:29 10° N
BREEZE M DEB (TANK) 2.8 02:30:59 10° WSW 02:40:04 87° NNW 02:43:02 10° ENE
Cosmos 1892 3.8 02:41:50 24° WSW 02:43:21 33° WNW 02:46:48 10° N
Cosmos 1763 Rocket 3.4 02:39:27 10° NNW 02:44:34 88° ENE 02:48:38 16° SSE
Cosmos 1933 Rocket 3.7 02:42:16 26° S 02:44:35 67° E 02:48:56 10° NNE
PSLV R/B 4.1 02:42:45 10° N 02:47:23 58° WNW 02:50:04 25° SW
MOS 1 Rocket 4.2 02:46:51 10° N 02:51:35 42° WNW 02:54:24 21° SW
Lacrosse 5 3.6 02:48:01 10° NW 02:52:42 36° NNE 02:57:23 10° E
BREEZE-M DEB (TANK) 3.8 02:49:13 19° SW 02:53:18 38° SSE 02:56:02 10° E
SL-8 R/B 3.6 02:50:30 10° W 02:55:19 68° SSW 03:00:06 10° ESE
Cosmos 1821 Rocket 4.1 02:51:42 10° N 02:58:03 80° E 03:03:42 14° SSE
UNK 4.3 02:53:46 11° SSE 02:58:11 59° ENE 03:02:46 10° N
Cosmos 2297 Rocket 4.3 02:53:55 10° NNW 02:58:43 27° NE 03:03:30 10° ESE
Cosmos 540 Rocket 4.2 02:53:42 10° NNW 02:58:44 52° ENE 03:03:43 10° SE
GP-B 3.1 02:59:43 10° N 03:04:11 84° W 03:06:58 23° S
Cosmos 1782 2.8 03:00:39 10° NNW 03:04:37 70° W 03:06:49 25° S
Cosmos 1814 Rocket 4.0 03:00:13 10° NNW 03:05:31 71° WSW 03:09:48 15° S
Cosmos 2369 Rocket 3.1 03:01:55 14° WSW 03:06:24 41° NW 03:11:44 10° NNE
Meteor 2-3 Rocket 4.1 03:03:03 21° SW 03:06:47 56° WNW 03:12:31 10° N
Cosmos 2227 Rocket 4.0 03:02:18 10° NNW 03:07:25 33° NE 03:12:31 10° ESE
Cosmos 2242 Rocket 4.2 03:05:44 10° NNW 03:09:58 41° W 03:12:15 23° SSW
Genesis I 4.2 03:07:27 10° NNW 03:11:29 51° NE 03:15:28 10° ESE
USA 229 DEB 4.0 03:07:18 10° NW 03:14:29 81° NE 03:21:53 10° SE
USA 229 4.0 03:07:24 10° NW 03:14:35 80° NE 03:22:00 10° SE
Cosmos 841 Rocket 3.4 03:10:25 10° NNW 03:15:38 74° WSW 03:20:31 11° SSE
Cosmos 2221 Rocket 4.4 03:13:03 10° N 03:17:23 50° ENE 03:21:43 10° SSE
Cosmos 1867 3.8 03:16:32 20° SSW 03:20:14 63° ESE 03:25:40 10° NE
Cosmos 1869 Rocket 4.2 03:17:06 15° SSE 03:20:33 51° E 03:24:49 10° NNE
USA 234 3.6 03:15:10 10° NE 03:21:41 69° NNW 03:28:10 10° WSW
BREEZE-M DEB (TANK) 3.1 03:18:41 10° W 03:22:13 79° N 03:27:08 10° E
ATLAS 5 CENTAUR R/B 4.5 03:18:50 10° NW 03:22:17 18° N 03:26:00 10° NNE
CZ-4B R/B 2.4 03:22:56 23° SW 03:23:45 27° W 03:26:27 10° NW
BREEZE-M TANK 2.4 03:27:14 18° SW 03:29:26 40° S 03:31:59 10° E
Cosmos 1818 4.3 03:24:47 10° NW 03:29:40 34° WSW 03:33:26 15° S
IRS-1C 4.4 03:25:01 10° NNE 03:30:21 66° ESE 03:35:00 14° S
Cosmos 1656 Rocket 3.8 03:28:50 18° SW 03:33:10 68° WNW 03:38:47 10° NNE
Cosmos 1184 Rocket 2.8 03:33:17 10° N 03:36:35 78° E 03:39:37 12° SSE
Cosmos 1703 Rocket 3.7 03:32:16 10° NNW 03:36:38 59° W 03:40:05 15° S
IRS-1D 3.8 03:32:26 10° NNE 03:37:35 66° ESE 03:42:08 13° S
Cosmos 292 Rocket 4.3 03:34:25 10° NW 03:38:56 41° WSW 03:42:38 15° S
Okean 1-7 3.0 03:37:19 10° NNW 03:41:43 71° W 03:45:44 12° S
COSMOS 2455 3.0 03:36:49 10° NW 03:42:42 56° WSW 03:48:32 10° SSE
H-2A R/B 2.3 03:39:46 10° NNE 03:43:49 85° ESE 03:46:57 15° SSW
Cosmos 1862 3.3 03:40:56 17° SSW 03:43:53 75° W 03:47:53 10° N
NPP 3.8 03:38:46 10° N 03:44:09 69° WNW 03:48:38 15° SSW
ADEOS II 3.9 03:40:26 10° NE 03:44:47 25° E 03:49:06 10° SSE
PSLV R/B 3.9 03:45:50 10° SSE 03:50:03 84° WSW 03:54:17 10° NNW
CZ-2D R/B 2.1 03:45:07 10° NNE 03:50:26 82° WNW 03:55:16 13° SSW
Cosmos 1943 Rocket 3.7 03:45:51 10° WSW 03:50:33 27° NW 03:55:18 10° NNE
Cosmos 1825 4.0 03:48:41 12° WSW 03:51:02 20° WNW 03:53:53 10° NNW
Cosmos 1354 Rocket 4.5 03:48:32 11° S 03:53:27 57° ESE 03:58:34 10° NNE
Cosmos 1689 Rocket 4.2 03:53:14 13° WSW 03:54:03 14° W 03:55:44 10° WNW
Cosmos 1605 Rocket 3.9 03:48:13 10° N 03:54:20 81° W 04:00:28 10° S
SL-16 R/B 2.8 03:48:44 10° S 03:54:36 49° W 04:00:35 10° NNW
Cosmos 1486 Rocket 4.1 03:51:31 15° SSW 03:56:01 76° WNW 04:01:24 10° NNE
UNKNOWN OBJECT B 4.1 03:53:46 10° NNE 03:57:30 37° E 04:01:15 10° SSE
SL-08 R/B 3.8 03:54:23 13° SSW 03:58:23 41° W 04:02:49 10° NNW
IRS-P3 4.4 03:55:51 10° N 04:01:04 56° WNW 04:05:51 12° SW
MOZ.5/SAFIR/RUBIN 5/SL-8 4.0 03:59:09 10° S 04:03:42 53° W 04:08:16 10° NNW
Cosmos 1733 Rocket 3.9 04:03:37 10° SSE 04:07:46 48° E 04:11:57 10° NNE
Cosmos 1934 Rocket 4.5 04:02:30 10° NNW 04:08:30 46° W 04:14:24 10° SSW
Cosmos 968 Rocket 4.3 04:08:46 10° S 04:13:49 49° ESE 04:18:54 10° NNE
Cosmos 1674 Rocket 4.2 04:11:11 10° N 04:15:28 57° ENE 04:19:43 10° SSE
Resurs 1-4 Rocket 2.6 04:11:15 10° N 04:16:24 50° WNW 04:21:31 10° SW
Cosmos 2219 3.6 04:12:14 10° NW 04:17:34 43° WSW 04:22:49 10° S
Lacrosse 4 Rocket 2.6 04:13:32 10° WSW 04:17:39 38° NW 04:21:51 10° NNE
Cosmos 1503 Rocket 4.0 04:17:20 10° SSW 04:22:30 83° WNW 04:27:43 10° NNE
Meteor 1-4 Rocket 3.0 04:21:12 10° SSW 04:24:43 50° WNW 04:28:22 10° N
ASTEX 1 3.9 04:21:50 10° SSE 04:26:48 67° E 04:31:47 10° N
ARIANE 5 R/B 2.6 04:21:50 10° N 04:26:48 65° WNW 04:31:44 10° SSW
Cosmos 1812 2.8 04:23:45 10° NNW 04:27:36 61° W 04:31:25 10° S
NOSS 3-1 (C) 4.1 04:22:32 10° NW 04:29:57 67° SW 04:38:16 10° SSE
USA 102 4.0 04:28:44 13° SW 04:30:02 21° W 04:33:08 10° NW
Cosmos 1437 Rocket 3.8 04:26:41 10° SW 04:30:26 34° WNW 04:34:13 10° N
Cosmos 1980 Rocket 4.4 04:27:54 10° SE 04:31:47 20° E 04:35:43 10° NE
ATLAS CENTAUR R/B 1.9 04:29:09 10° SSW 04:32:50 50° ESE 04:36:47 10° NE
Lacrosse 5 2.0 04:31:06 10° NW 04:36:12 87° NE 04:41:17 10° SE
CZ-2D R/B 3.5 04:36:03 10° N 04:40:21 75° WNW 04:44:29 10° SSW
